STARLINK-11260 [DTC] (60997 NORAD) Tracking and Keplerian Element Data

This shows tracking and keplerian element data for the satellite.

Feedback or suggestion? Click here.




ElementValue
Catalog60997
NameSTARLINK-11260 [DTC]
Epoch Orbit611
Epoch Day286.91668981
Epoch Year2024
RAAN285.0661
Inclination53.1388
Eccentricity8.18E-05
Argument of Perigee127.0475
Mean Anonmoly137.2672
Mean Motion15.93654498
Decay Rate-0.00127098
L11 60997U 24158H 24286.91668981 -.00127098 16409-4 -33310-3 0 9997
L22 60997 53.1388 285.0661 0000818 127.0475 137.2672 15.93654498 6112



Live tracking and technical data element details for STARLINK-11260 [DTC] (NORAD 60997). STARLINK-11260 [DTC] can be tracked NOW for your location showing map with azimuth and elevation plus other details from your city location.







IsCatalogInMostPopularTable: catalog: 60997, numindb: 9
Update: records affected: 1



GetName: 60997 STARLINK-11260 [DTC]

Hit Count: updated at: Tue, 03 Dec 2024 01:35:52 GMT